Weather History for Pasco, WA

Change the Weather History Date:

Monday, March 24, 2014

  Actual Average Record
Temperature  
Mean Temperature 48 °F 49 °F  
Max Temperature 68 °F 62 °F 74 °F (2001)
Min Temperature 27 °F 36 °F 18 °F (2013)
Degree Days  
Heating Degree Days 17 16  
Month to date heating degree days 459 471  
Since 1 July heating degree days 4688 4354  
Cooling Degree Days 0 0  
Month to date cooling degree days 0 0  
Year to date cooling degree days 0 0  
Moisture  
Dew Point 29 °F    
Average Humidity 56    
Maximum Humidity 92    
Minimum Humidity 19    
Precipitation  
Precipitation 0.00 in 0.03 in 0.62 in (1986)
Month to date precipitation 0.42 0.61  
Year to date precipitation 1.40 2.69  
Snow  
Snow 0.00 in - - ()
Snow Depth 0.00 in    
Sea Level Pressure  
Sea Level Pressure 30.16 in    
Wind  
Wind Speed 4 mph (North)    
Max Wind Speed 12 mph    
Max Gust Speed 17 mph    
Visibility 10 miles    
Events      
T = Trace of Precipitation, MM = Missing Value Source: NWS Daily Summary

Daily Weather History Graph

Daily Weather History Graph

Search for Another Location

Airport:

Trip Planner

Search our weather history database for the weather conditions in past years. The results will help you decide how hot, cold, wet, or windy it might be!

Date:

Astronomy

Mar. 24, 2014 Rise Set
Actual Time 6:51 AM PDT 7:14 PM PDT
Civil Twilight 6:21 AM PDT 7:44 PM PDT
Nautical Twilight 5:46 AM PDT 8:20 PM PDT
Astronomical Twilight 5:09 AM PDT 8:57 PM PDT
Moon 2:44 AM PDT (3/24) 12:27 PM PDT (3/24)
Length of Visible Light 13h 23m
Length of Day
12h 23m
Last Quarter, 42% of the Moon is Illuminated
Mar 24
Last Quarter
Mar 30
New
Apr 7
First Quarter
Apr 15
Full
Apr 22
Last Quarter

Hourly Weather History & Observations

Time (PDT) Temp. Windchill Dew Point Humidity Pressure Visibility Wind Dir Wind Speed Gust Speed Precip Events Conditions
12:53 AM 37.9 °F - 28.9 °F 70% 30.26 in 10.0 mi Calm Calm - N/A   Clear
1:53 AM 33.1 °F 28.7 °F 28.0 °F 82% 30.26 in 10.0 mi North 4.6 mph - N/A   Clear
2:53 AM 30.0 °F 23.2 °F 27.0 °F 88% 30.26 in 10.0 mi NNE 6.9 mph - N/A   Clear
3:53 AM 33.1 °F 28.7 °F 27.0 °F 78% 30.27 in 10.0 mi NW 4.6 mph - N/A   Clear
4:53 AM 30.0 °F 25.2 °F 28.0 °F 92% 30.27 in 10.0 mi North 4.6 mph - N/A   Clear
5:53 AM 30.0 °F - 28.0 °F 92% 30.26 in 10.0 mi Calm Calm - N/A   Clear
6:53 AM 28.0 °F 20.0 °F 26.1 °F 92% 30.28 in 10.0 mi North 8.1 mph - N/A   Clear
7:53 AM 32.0 °F - 28.0 °F 85% 30.27 in 10.0 mi Calm Calm - N/A   Clear
8:53 AM 39.0 °F 35.7 °F 30.0 °F 70% 30.27 in 10.0 mi NW 4.6 mph - N/A   Clear
9:53 AM 46.0 °F 43.1 °F 30.9 °F 56% 30.27 in 10.0 mi NW 5.8 mph - N/A   Clear
10:53 AM 51.1 °F - 30.0 °F 44% 30.25 in 10.0 mi NW 6.9 mph - N/A   Clear
11:53 AM 55.9 °F - 30.9 °F 39% 30.23 in 10.0 mi North 5.8 mph - N/A   Clear
12:53 PM 61.0 °F - 32.0 °F 34% 30.20 in 10.0 mi North 5.8 mph - N/A   Clear
1:53 PM 64.0 °F - 28.9 °F 27% 30.17 in 10.0 mi NNE 8.1 mph - N/A   Clear
2:53 PM 66.0 °F - 27.0 °F 23% 30.13 in 10.0 mi Variable 3.5 mph - N/A   Clear
3:53 PM 66.0 °F - 28.0 °F 24% 30.10 in 10.0 mi NNE 5.8 mph - N/A   Clear
4:53 PM 68.0 °F - 24.1 °F 19% 30.07 in 10.0 mi North 5.8 mph - N/A   Clear
5:53 PM 64.0 °F - 30.0 °F 28% 30.04 in 10.0 mi North 6.9 mph - N/A   Clear
6:53 PM 55.9 °F - 35.1 °F 45% 30.03 in 10.0 mi NNW 6.9 mph - N/A   Clear
7:53 PM 50.0 °F - 34.0 °F 54% 30.01 in 10.0 mi NNW 6.9 mph - N/A   Clear
8:53 PM 48.0 °F - 34.0 °F 58% 30.00 in 10.0 mi North 3.5 mph - N/A   Clear
9:53 PM 48.9 °F - 30.9 °F 50% 29.98 in 10.0 mi NW 3.5 mph - N/A   Clear
10:53 PM 48.0 °F - 30.0 °F 50% 29.97 in 10.0 mi Calm Calm - N/A   Clear
11:53 PM 43.0 °F 38.2 °F 30.9 °F 62% 29.95 in 10.0 mi North 8.1 mph - N/A   Clear